• în România
  • Lista ţărilor
  • Pe 7 zile
  • Temperatura apei
  • Hartă satelitară
  • Meteo pe hartă
  • Widget-uri
  • user-avatar
    Intrare

    Meteo pe oră la Suhaya Vyazovka

    Astăzi, 21 Iunie, Joi

    Timp Temperatura Precipitaţii Vânt Presiune Umiditate
    00:00 +16°C° 0 mm 2 m/s 751 mmHg 83%
    01:00 +15°C° 0 mm 2 m/s 751 mmHg 83%
    02:00 +15°C° 0 mm 2 m/s 751 mmHg 82%
    03:00 +14°C° 0 mm 2 m/s 751 mmHg 81%
    04:00 +14°C° 0 mm 3 m/s 751 mmHg 79%
    05:00 +16°C° 0 mm 3 m/s 752 mmHg 76%
    06:00 +17°C° 0 mm 4 m/s 752 mmHg 74%
    07:00 +19°C° 0 mm 5 m/s 752 mmHg 66%
    08:00 +21°C° 0 mm 6 m/s 752 mmHg 58%
    09:00 +22°C° 0 mm 7 m/s 752 mmHg 51%
    10:00 +22°C° 0 mm 7 m/s 752 mmHg 49%
    11:00 +23°C° 0 mm 7 m/s 751 mmHg 47%
    12:00 +23°C° 0 mm 7 m/s 751 mmHg 45%
    13:00 +23°C° 0 mm 7 m/s 751 mmHg 46%
    14:00 +23°C° 0 mm 7 m/s 752 mmHg 46%
    15:00 +23°C° 0 mm 7 m/s 752 mmHg 47%
    16:00 +22°C° 0 mm 6 m/s 752 mmHg 52%
    17:00 +22°C° 0 mm 5 m/s 752 mmHg 57%
    18:00 +21°C° 0 mm 4 m/s 752 mmHg 63%
    19:00 +20°C° 0 mm 4 m/s 752 mmHg 64%
    20:00 +19°C° 0 mm 4 m/s 752 mmHg 66%
    21:00 +18°C° 0 mm 3 m/s 752 mmHg 67%
    22:00 +17°C° 0 mm 4 m/s 752 mmHg 72%
    23:00 +15°C° 0 mm 4 m/s 752 mmHg 76%

    Mâine, 22 Iunie, Vineri

    Timp Temperatura Precipitaţii Vânt Presiune Umiditate
    00:00 +14°C° 0 mm 4 m/s 752 mmHg 80%
    01:00 +14°C° 0 mm 4 m/s 753 mmHg 82%
    02:00 +13°C° 0 mm 4 m/s 753 mmHg 83%
    03:00 +13°C° 0 mm 4 m/s 753 mmHg 84%
    04:00 +14°C° 0 mm 4 m/s 753 mmHg 80%
    05:00 +15°C° 0 mm 5 m/s 753 mmHg 77%
    06:00 +16°C° 0 mm 5 m/s 754 mmHg 73%
    07:00 +17°C° 0 mm 5 m/s 754 mmHg 65%
    08:00 +20°C° 0 mm 6 m/s 754 mmHg 57%
    09:00 +21°C° 0 mm 6 m/s 754 mmHg 50%
    10:00 +22°C° 0 mm 6 m/s 754 mmHg 48%
    11:00 +23°C° 0 mm 6 m/s 754 mmHg 46%
    12:00 +24°C° 0 mm 6 m/s 754 mmHg 44%
    13:00 +24°C° 0 mm 6 m/s 755 mmHg 44%
    14:00 +24°C° 0 mm 6 m/s 755 mmHg 45%
    15:00 +24°C° 0 mm 6 m/s 755 mmHg 45%
    16:00 +25°C° 0 mm 5 m/s 755 mmHg 50%
    17:00 +23°C° 0 mm 4 m/s 755 mmHg 55%
    18:00 +24°C° 0 mm 3 m/s 755 mmHg 60%
    19:00 +21°C° 0 mm 2 m/s 755 mmHg 64%
    20:00 +19°C° 0 mm 2 m/s 755 mmHg 68%
    21:00 +18°C° 0 mm 1 m/s 755 mmHg 72%
    22:00 +18°C° 0 mm 1 m/s 755 mmHg 73%
    23:00 +16°C° 0 mm 1 m/s 756 mmHg 74%

    Poimâine, 23 Iunie, Sâmbătă

    Timp Temperatura Precipitaţii Vânt Presiune Umiditate
    00:00 +16°C° 0 mm 1 m/s 756 mmHg 76%
    01:00 +16°C° 0 mm 1 m/s 756 mmHg 77%
    02:00 +15°C° 0 mm 2 m/s 756 mmHg 79%
    03:00 +15°C° 0 mm 2 m/s 756 mmHg 81%
    04:00 +17°C° 0 mm 2 m/s 756 mmHg 79%
    05:00 +18°C° 0 mm 2 m/s 756 mmHg 77%
    06:00 +19°C° 0 mm 2 m/s 756 mmHg 75%
    07:00 +21°C° 0 mm 2 m/s 756 mmHg 71%
    08:00 +24°C° 0 mm 2 m/s 756 mmHg 66%
    09:00 +26°C° 0 mm 2 m/s 756 mmHg 61%
    10:00 +27°C° 0 mm 2 m/s 756 mmHg 58%
    11:00 +28°C° 0 mm 2 m/s 756 mmHg 55%
    12:00 +29°C° 0 mm 3 m/s 756 mmHg 51%
    13:00 +29°C° 0 mm 3 m/s 756 mmHg 51%
    14:00 +29°C° 0 mm 3 m/s 756 mmHg 51%
    15:00 +30°C° 0 mm 3 m/s 756 mmHg 51%
    16:00 +29°C° 0 mm 2 m/s 755 mmHg 55%
    17:00 +29°C° 0 mm 2 m/s 755 mmHg 59%
    18:00 +28°C° 0 mm 2 m/s 755 mmHg 63%
    19:00 +26°C° 0 mm 1 m/s 755 mmHg 69%
    20:00 +24°C° 0 mm 1 m/s 755 mmHg 74%
    21:00 +23°C° 0 mm 1 m/s 756 mmHg 79%
    22:00 +22°C° 0 mm 1 m/s 756 mmHg 80%
    23:00 +22°C° 0 mm 1 m/s 756 mmHg 81%

    24 Iunie, Duminică

    Timp Temperatura Precipitaţii Vânt Presiune Umiditate
    00:00 +21°C° 0 mm 1 m/s 756 mmHg 82%
    01:00 +21°C° 0 mm 1 m/s 756 mmHg 83%
    02:00 +21°C° 0 mm 1 m/s 756 mmHg 84%
    03:00 +20°C° 0 mm 1 m/s 756 mmHg 85%
    04:00 +22°C° 0 mm 1 m/s 756 mmHg 81%
    05:00 +23°C° 0 mm 1 m/s 756 mmHg 77%
    06:00 +24°C° 0 mm 1 m/s 756 mmHg 73%
    07:00 +26°C° 0 mm 1 m/s 757 mmHg 68%
    08:00 +27°C° 0 mm 1 m/s 757 mmHg 63%
    09:00 +29°C° 0 mm 1 m/s 757 mmHg 57%
    10:00 +30°C° 0 mm 1 m/s 757 mmHg 54%
    11:00 +31°C° 0 mm 1 m/s 757 mmHg 51%
    12:00 +31°C° 0 mm 1 m/s 756 mmHg 48%
    13:00 +32°C° 0 mm 1 m/s 756 mmHg 47%
    14:00 +32°C° 0 mm 2 m/s 756 mmHg 47%
    15:00 +32°C° 0 mm 2 m/s 756 mmHg 47%
    16:00 +31°C° 0 mm 2 m/s 756 mmHg 50%
    17:00 +31°C° 0 mm 2 m/s 757 mmHg 54%
    18:00 +31°C° 0 mm 1 m/s 757 mmHg 58%
    19:00 +29°C° 0 mm 1 m/s 757 mmHg 62%
    20:00 +27°C° 0 mm 1 m/s 757 mmHg 66%
    21:00 +25°C° 0 mm 1 m/s 757 mmHg 70%
    22:00 +25°C° 0 mm 1 m/s 757 mmHg 72%
    23:00 +24°C° 0 mm 1 m/s 758 mmHg 74%

    25 Iunie, Luni

    Timp Temperatura Precipitaţii Vânt Presiune Umiditate
    00:00 +24°C° 0 mm 1 m/s 758 mmHg 76%
    01:00 +21°C° 0 mm 0 m/s 758 mmHg 78%
    02:00 +21°C° 0 mm 0 m/s 758 mmHg 79%
    03:00 +21°C° 0 mm 0 m/s 758 mmHg 81%
    04:00 +22°C° 0 mm 0 m/s 758 mmHg 78%
    05:00 +23°C° 0 mm 0 m/s 758 mmHg 75%
    06:00 +24°C° 0 mm 0 m/s 759 mmHg 73%
    07:00 +26°C° 0,2 mm 0 m/s 759 mmHg 68%
    08:00 +27°C° 0,2 mm 0 m/s 759 mmHg 63%
    09:00 +28°C° 0,2 mm 0 m/s 759 mmHg 58%
    10:00 +29°C° 0 mm 0 m/s 759 mmHg 55%
    11:00 +30°C° 0 mm 0 m/s 759 mmHg 52%
    12:00 +30°C° 0 mm 0 m/s 759 mmHg 48%
    13:00 +32°C° 0 mm 1 m/s 759 mmHg 49%
    14:00 +32°C° 0 mm 1 m/s 759 mmHg 49%
    15:00 +32°C° 0 mm 1 m/s 759 mmHg 50%
    16:00 +32°C° 0,1 mm 1 m/s 759 mmHg 53%
    17:00 +31°C° 0,1 mm 2 m/s 759 mmHg 55%
    18:00 +31°C° 0,1 mm 2 m/s 759 mmHg 58%
    19:00 +29°C° 0 mm 1 m/s 759 mmHg 63%
    20:00 +27°C° 0 mm 1 m/s 759 mmHg 67%
    21:00 +25°C° 0 mm 1 m/s 759 mmHg 72%
    22:00 +25°C° 0 mm 1 m/s 759 mmHg 74%
    23:00 +24°C° 0 mm 1 m/s 759 mmHg 77%

    26 Iunie, Marţi

    Timp Temperatura Precipitaţii Vânt Presiune Umiditate
    00:00 +24°C° 0 mm 1 m/s 759 mmHg 79%
    01:00 +23°C° 0 mm 1 m/s 759 mmHg 81%
    02:00 +23°C° 0 mm 1 m/s 759 mmHg 82%
    03:00 +23°C° 0 mm 1 m/s 759 mmHg 84%
    04:00 +24°C° 0 mm 1 m/s 759 mmHg 81%
    05:00 +25°C° 0 mm 1 m/s 759 mmHg 78%
    06:00 +26°C° 0 mm 2 m/s 759 mmHg 76%
    07:00 +27°C° 0 mm 2 m/s 759 mmHg 71%
    08:00 +28°C° 0 mm 3 m/s 759 mmHg 66%
    09:00 +30°C° 0 mm 3 m/s 759 mmHg 61%
    10:00 +30°C° 0 mm 4 m/s 759 mmHg 58%
    11:00 +32°C° 0 mm 4 m/s 759 mmHg 55%
    12:00 +33°C° 0 mm 4 m/s 759 mmHg 52%
    13:00 +33°C° 0,3 mm 5 m/s 759 mmHg 53%
    14:00 +32°C° 0,3 mm 5 m/s 759 mmHg 55%
    15:00 +32°C° 0,3 mm 5 m/s 759 mmHg 56%
    16:00 +32°C° 0,1 mm 5 m/s 759 mmHg 60%
    17:00 +30°C° 0,1 mm 4 m/s 759 mmHg 63%
    18:00 +29°C° 0,1 mm 3 m/s 759 mmHg 67%
    19:00 +28°C° 0 mm 3 m/s 759 mmHg 71%
    20:00 +26°C° 0 mm 3 m/s 759 mmHg 76%
    21:00 +25°C° 0 mm 3 m/s 759 mmHg 81%
    22:00 +24°C° 0 mm 3 m/s 759 mmHg 83%
    23:00 +24°C° 0 mm 3 m/s 759 mmHg 86%
    Arată mai mult